| time (UTC) | temp F | wind direction | speed MPH | gust MPH | rain 1hr in | rain 24hr in | rain mn in | humidity % | barometer mb |
| 20260902172002 | 64 | 89 | 12.0 | 15.0 | 0.00 | 0.00 | 0.00 | 83 | 1021.4 |
| 20260902171003 | 64 | 92 | 13.0 | 15.0 | 0.00 | 0.00 | 0.00 | 83 | 1021.7 |
| 20260902170003 | 65 | 94 | 11.0 | 14.0 | 0.00 | 0.00 | 0.00 | 82 | 1021.6 |
| 20260902165002 | 64 | 93 | 13.0 | 15.0 | 0.00 | 0.00 | 0.00 | 82 | 1021.8 |
| 20260902164003 | 65 | 87 | 14.0 | 17.0 | 0.00 | 0.00 | 0.00 | 81 | 1021.7 |
| 20260902163003 | 65 | 82 | 15.0 | 19.0 | 0.00 | 0.00 | 0.00 | 82 | 1021.9 |
| 20260902162003 | 65 | 80 | 16.0 | 20.0 | 0.00 | 0.00 | 0.00 | 82 | 1021.8 |
| 20260902161025 | 65 | 83 | 17.0 | 20.0 | 0.00 | 0.00 | 0.00 | 82 | 1021.9 |
| 20260902160003 | 65 | 85 | 16.0 | 19.0 | 0.00 | 0.00 | 0.00 | 82 | 1022.3 |
| 20260902155023 | 65 | 87 | 16.0 | 19.0 | 0.00 | 0.00 | 0.00 | 82 | 1022.1 |
| 20260902154003 | 64 | 82 | 17.0 | 18.0 | 0.00 | 0.00 | 0.00 | 83 | 1022.1 |
| 20260902153003 | 64 | 80 | 15.0 | 17.0 | 0.00 | 0.00 | 0.00 | 83 | 1022.2 |
| 20260902152003 | 64 | 81 | 15.0 | 17.0 | 0.00 | 0.00 | 0.00 | 83 | 1022.1 |
| 20260902151003 | 64 | 78 | 15.0 | 16.0 | 0.00 | 0.00 | 0.00 | 84 | 1022.0 |
| 20260902150002 | 64 | 82 | 14.0 | 17.0 | 0.00 | 0.00 | 0.00 | 84 | 1022.1 |
| 20260902145024 | 63 | 61 | 14.0 | 17.0 | 0.00 | 0.00 | 0.00 | 83 | 1022.0 |
| 20260902144023 | 63 | 59 | 13.0 | 16.0 | 0.00 | 0.00 | 0.00 | 83 | 1022.0 |
| 20260902143045 | 63 | 56 | 13.0 | 17.0 | 0.00 | 0.00 | 0.00 | 83 | 1021.8 |
| 20260902142003 | 63 | 61 | 12.0 | 16.0 | 0.00 | 0.00 | 0.00 | 83 | 1021.8 |
| 20260902141003 | 63 | 58 | 12.0 | 15.0 | 0.00 | 0.00 | 0.00 | 84 | 1021.7 |
| 20260902140003 | 62 | 53 | 12.0 | 15.0 | 0.00 | 0.00 | 0.00 | 83 | 1021.7 |
| 20260902135003 | 62 | 64 | 12.0 | 15.0 | 0.00 | 0.00 | 0.00 | 83 | 1021.7 |
| 20260902134003 | 63 | 53 | 10.0 | 14.0 | 0.00 | 0.00 | 0.00 | 84 | 1021.7 |
| 20260902133003 | 62 | 58 | 11.0 | 14.0 | 0.00 | 0.00 | 0.00 | 85 | 1021.4 |
| 20260902132002 | 62 | 55 | 10.0 | 14.0 | 0.00 | 0.00 | 0.00 | 84 | 1021.4 |
| 20260902131003 | 62 | 64 | 12.0 | 14.0 | 0.00 | 0.00 | 0.00 | 85 | 1021.4 |
| 20260902130003 | 62 | 55 | 9.0 | 12.0 | 0.00 | 0.00 | 0.00 | 85 | 1021.5 |
| 20260902125003 | 62 | 50 | 10.0 | 12.0 | 0.00 | 0.00 | 0.00 | 86 | 1021.4 |
| 20260902124003 | 62 | 45 | 9.0 | 11.0 | 0.00 | 0.00 | 0.00 | 86 | 1021.4 |
| 20260902123002 | 62 | 41 | 9.0 | 12.0 | 0.00 | 0.00 | 0.00 | 86 | 1021.4 |
| 20260902122003 | 62 | 40 | 9.0 | 12.0 | 0.00 | 0.00 | 0.00 | 87 | 1021.4 |
| 20260902121023 | 61 | 53 | 9.0 | 12.0 | 0.00 | 0.00 | 0.00 | 87 | 1021.7 |
| 20260902120003 | 61 | 43 | 9.0 | 12.0 | 0.00 | 0.00 | 0.00 | 88 | 1021.6 |
| 20260902115002 | 61 | 42 | 9.0 | 12.0 | 0.00 | 0.00 | 0.00 | 88 | 1021.5 |
| 20260902114024 | 61 | 40 | 9.0 | 12.0 | 0.00 | 0.00 | 0.00 | 89 | 1021.4 |
| 20260902113003 | 61 | 40 | 10.0 | 13.0 | 0.00 | 0.00 | 0.00 | 90 | 1021.2 |
| 20260902112002 | 61 | 48 | 10.0 | 13.0 | 0.00 | 0.00 | 0.00 | 90 | 1020.9 |
| 20260902111003 | 60 | 41 | 10.0 | 13.0 | 0.00 | 0.00 | 0.00 | 90 | 1020.9 |
| 20260902105003 | 60 | 44 | 9.0 | 12.0 | 0.00 | 0.00 | 0.00 | 92 | 1020.8 |
| 20260902104002 | 60 | 28 | 8.0 | 12.0 | 0.00 | 0.00 | 0.00 | 92 | 1020.9 |
| 20260902103003 | 59 | 29 | 9.0 | 13.0 | 0.00 | 0.00 | 0.00 | 93 | 1020.8 |
| 20260902102003 | 59 | 28 | 9.0 | 12.0 | 0.00 | 0.00 | 0.00 | 93 | 1020.8 |
| 20260902101003 | 59 | 29 | 9.0 | 12.0 | 0.00 | 0.00 | 0.00 | 93 | 1020.8 |
| 20260902100003 | 59 | 29 | 6.0 | 11.0 | 0.00 | 0.00 | 0.00 | 94 | 1020.9 |
| 20260902095002 | 59 | 27 | 6.0 | 10.0 | 0.00 | 0.00 | 0.00 | 94 | 1020.9 |
| 20260902094003 | 59 | 27 | 7.0 | 10.0 | 0.00 | 0.00 | 0.00 | 94 | 1020.9 |
| 20260902093003 | 59 | 28 | 7.0 | 10.0 | 0.00 | 0.00 | 0.00 | 94 | 1020.7 |
| 20260902092023 | 60 | 18 | 5.0 | 9.0 | 0.00 | 0.00 | 0.00 | 94 | 1020.7 |
| 20260902091003 | 60 | 26 | 5.0 | 10.0 | 0.00 | 0.00 | 0.00 | 94 | 1020.7 |
| 20260902090004 | 60 | 21 | 6.0 | 9.0 | 0.00 | 0.00 | 0.00 | 94 | 1020.8 |
| 20260902085003 | 60 | 13 | 4.0 | 8.0 | 0.00 | 0.00 | 0.00 | 94 | 1020.8 |
| 20260902084003 | 60 | 15 | 5.0 | 10.0 | 0.00 | 0.00 | 0.00 | 94 | 1020.8 |
| 20260902083002 | 60 | 32 | 7.0 | 10.0 | 0.00 | 0.00 | 0.00 | 94 | 1020.7 |
| 20260902082003 | 60 | 41 | 9.0 | 12.0 | 0.00 | 0.00 | 0.00 | 94 | 1020.8 |
| 20260902081003 | 61 | 39 | 8.0 | 11.0 | 0.00 | 0.00 | 0.00 | 94 | 1020.7 |
| 20260902080003 | 61 | 54 | 8.0 | 12.0 | 0.00 | 0.00 | 0.00 | 94 | 1020.7 |
| 20260902075003 | 60 | 54 | 10.0 | 12.0 | 0.00 | 0.00 | 0.00 | 94 | 1020.7 |
| 20260902074002 | 60 | 57 | 9.0 | 12.0 | 0.00 | 0.00 | 0.00 | 94 | 1020.7 |
| 20260902073003 | 61 | 48 | 8.0 | 10.0 | 0.00 | 0.00 | 0.00 | 94 | 1020.5 |
| 20260902072003 | 61 | 45 | 6.0 | 9.0 | 0.00 | 0.00 | 0.00 | 94 | 1020.6 |
| 20260902071002 | 61 | 41 | 9.0 | 10.0 | 0.00 | 0.00 | 0.00 | 94 | 1020.5 |
| 20260902070003 | 61 | 44 | 8.0 | 10.0 | 0.00 | 0.00 | 0.00 | 94 | 1020.5 |
| 20260902065003 | 61 | 55 | 7.0 | 10.0 | 0.00 | 0.00 | 0.00 | 94 | 1020.5 |
| 20260902064003 | 61 | 38 | 5.0 | 8.0 | 0.00 | 0.00 | 0.00 | 94 | 1020.5 |
| 20260902063003 | 61 | 45 | 6.0 | 10.0 | 0.00 | 0.00 | 0.00 | 94 | 1020.5 |
| 20260902062003 | 61 | 52 | 7.0 | 11.0 | 0.00 | 0.00 | 0.00 | 94 | 1020.3 |
| 20260902061003 | 61 | 47 | 7.0 | 10.0 | 0.00 | 0.00 | 0.00 | 94 | 1020.0 |
| 20260902060003 | 61 | 42 | 8.0 | 9.0 | 0.00 | 0.00 | 0.00 | 94 | 1019.9 |
| 20260902055003 | 61 | 47 | 5.0 | 8.0 | 0.00 | 0.00 | 0.00 | 94 | 1020.0 |
| 20260902054003 | 61 | 47 | 5.0 | 8.0 | 0.00 | 0.00 | 0.00 | 94 | 1019.8 |
| 20260902053002 | 61 | 41 | 4.0 | 8.0 | 0.00 | 0.00 | 0.00 | 94 | 1019.5 |
| 20260902052004 | 61 | 37 | 5.0 | 9.0 | 0.00 | 0.00 | 0.00 | 94 | 1019.5 |
| 20260902051003 | 62 | 33 | 6.0 | 8.0 | 0.00 | 0.00 | 0.00 | 94 | 1019.4 |
| 20260902050004 | 62 | 36 | 5.0 | 6.0 | 0.00 | 0.00 | 0.00 | 94 | 1019.3 |
| 20260902045003 | 62 | 27 | 3.0 | 5.0 | 0.00 | 0.00 | 0.00 | 94 | 1019.3 |
| 20260902044002 | 62 | 34 | 3.0 | 5.0 | 0.00 | 0.00 | 0.00 | 94 | 1019.4 |
| 20260902043003 | 61 | 38 | 5.0 | 7.0 | 0.00 | 0.00 | 0.00 | 94 | 1019.5 |
| 20260902042002 | 61 | 32 | 4.0 | 8.0 | 0.00 | 0.00 | 0.00 | 94 | 1019.3 |
| 20260902041024 | 61 | 14 | 6.0 | 8.0 | 0.00 | 0.00 | 0.00 | 94 | 1019.2 |
| 20260902040002 | 61 | 37 | 6.0 | 8.0 | 0.00 | 0.00 | 0.00 | 94 | 1019.2 |
| 20260902035003 | 61 | 30 | 6.0 | 8.0 | 0.00 | 0.00 | 0.00 | 94 | 1018.9 |
| 20260902034003 | 61 | 40 | 6.0 | 8.0 | 0.00 | 0.00 | 0.00 | 94 | 1018.7 |
| 20260902033003 | 62 | 45 | 6.0 | 9.0 | 0.00 | 0.00 | 0.00 | 94 | 1018.6 |
| 20260902032003 | 62 | 48 | 4.0 | 9.0 | 0.00 | 0.00 | 0.00 | 94 | 1018.6 |
| 20260902031002 | 62 | 58 | 5.0 | 8.0 | 0.00 | 0.00 | 0.00 | 93 | 1018.6 |
| 20260902030003 | 62 | 51 | 4.0 | 6.0 | 0.00 | 0.00 | 0.00 | 93 | 1018.7 |
| 20260902025002 | 62 | 49 | 4.0 | 6.0 | 0.00 | 0.00 | 0.00 | 93 | 1018.7 |
| 20260902024003 | 62 | 38 | 5.0 | 8.0 | 0.00 | 0.00 | 0.00 | 93 | 1018.6 |
| 20260902023003 | 61 | 41 | 6.0 | 8.0 | 0.00 | 0.00 | 0.00 | 93 | 1018.6 |
| 20260902022003 | 62 | 40 | 5.0 | 8.0 | 0.00 | 0.00 | 0.00 | 93 | 1018.5 |
| 20260902021003 | 62 | 29 | 5.0 | 8.0 | 0.00 | 0.00 | 0.00 | 93 | 1018.5 |
| 20260902020024 | 61 | 26 | 4.0 | 8.0 | 0.00 | 0.00 | 0.00 | 93 | 1018.7 |
| 20260902015003 | 62 | 31 | 6.0 | 9.0 | 0.00 | 0.00 | 0.00 | 93 | 1018.7 |
| 20260902014003 | 62 | 49 | 6.0 | 10.0 | 0.00 | 0.00 | 0.00 | 93 | 1018.5 |
| 20260902013002 | 62 | 26 | 7.0 | 10.0 | 0.00 | 0.00 | 0.00 | 93 | 1018.5 |
| 20260902012003 | 62 | 53 | 6.0 | 10.0 | 0.00 | 0.00 | 0.00 | 93 | 1018.5 |
| 20260902011003 | 61 | 18 | 5.0 | 6.0 | 0.00 | 0.00 | 0.00 | 92 | 1018.6 |
| 20260902010003 | 62 | 22 | 5.0 | 7.0 | 0.00 | 0.00 | 0.00 | 92 | 1018.4 |
| 20260902005002 | 62 | 68 | 5.0 | 8.0 | 0.00 | 0.00 | 0.00 | 92 | 1018.4 |
| 20260902004003 | 62 | 83 | 6.0 | 8.0 | 0.00 | 0.00 | 0.00 | 92 | 1018.2 |
| 20260902003003 | 62 | 78 | 6.0 | 8.0 | 0.00 | 0.00 | 0.00 | 92 | 1018.2 |
| 20260902002024 | 62 | 71 | 7.0 | 8.0 | 0.00 | 0.00 | 0.00 | 92 | 1018.1 |
| 20260902001024 | 62 | 46 | 6.0 | 8.0 | 0.00 | 0.00 | 0.00 | 91 | 1018.1 |
| 20260902000002 | 62 | 61 | 6.0 | 10.0 | 0.00 | 0.00 | 0.00 | 91 | 1018.0 |
| 20260901235024 | 62 | 60 | 7.0 | 10.0 | 0.00 | 0.00 | 0.00 | 91 | 1018.2 |
| 20260901234003 | 62 | 58 | 8.0 | 10.0 | 0.00 | 0.00 | 0.00 | 91 | 1018.1 |
| 20260901233002 | 63 | 58 | 8.0 | 10.0 | 0.00 | 0.00 | 0.00 | 90 | 1017.9 |
| 20260901232003 | 63 | 64 | 8.0 | 10.0 | 0.00 | 0.00 | 0.00 | 90 | 1018.1 |
| 20260901231003 | 63 | 66 | 8.0 | 10.0 | 0.00 | 0.00 | 0.00 | 89 | 1018.0 |
| 20260901230003 | 63 | 74 | 8.0 | 10.0 | 0.00 | 0.00 | 0.00 | 89 | 1017.9 |
| 20260901225045 | 63 | 81 | 7.0 | 11.0 | 0.00 | 0.00 | 0.00 | 88 | 1017.8 |
| 20260901224003 | 64 | 80 | 9.0 | 10.0 | 0.00 | 0.00 | 0.00 | 88 | 1017.6 |
| 20260901223003 | 64 | 80 | 9.0 | 12.0 | 0.00 | 0.00 | 0.00 | 87 | 1017.7 |
| 20260901222003 | 65 | 88 | 9.0 | 11.0 | 0.00 | 0.00 | 0.00 | 87 | 1017.6 |
| 20260901221002 | 65 | 90 | 9.0 | 12.0 | 0.00 | 0.00 | 0.00 | 86 | 1017.6 |
| 20260901220003 | 65 | 90 | 10.0 | 12.0 | 0.00 | 0.00 | 0.00 | 86 | 1017.6 |
| 20260901215002 | 65 | 86 | 10.0 | 12.0 | 0.00 | 0.00 | 0.00 | 86 | 1017.5 |
| 20260901214003 | 65 | 80 | 10.0 | 13.0 | 0.00 | 0.00 | 0.00 | 85 | 1017.5 |
| 20260901213003 | 66 | 81 | 11.0 | 12.0 | 0.00 | 0.00 | 0.00 | 85 | 1017.5 |
| 20260901212024 | 66 | 83 | 11.0 | 12.0 | 0.00 | 0.00 | 0.00 | 85 | 1017.6 |
| 20260901211003 | 66 | 87 | 10.0 | 12.0 | 0.00 | 0.00 | 0.00 | 85 | 1017.5 |
| 20260901210002 | 66 | 76 | 11.0 | 14.0 | 0.00 | 0.00 | 0.00 | 84 | 1017.3 |
| 20260901205003 | 66 | 89 | 12.0 | 15.0 | 0.00 | 0.00 | 0.00 | 84 | 1017.1 |
| 20260901204024 | 67 | 85 | 12.0 | 14.0 | 0.00 | 0.00 | 0.00 | 83 | 1017.1 |
| 20260901203024 | 67 | 83 | 12.0 | 15.0 | 0.00 | 0.00 | 0.00 | 83 | 1017.1 |
| 20260901202003 | 66 | 79 | 14.0 | 17.0 | 0.00 | 0.00 | 0.00 | 83 | 1017.0 |
| 20260901201002 | 66 | 77 | 14.0 | 16.0 | 0.00 | 0.00 | 0.00 | 83 | 1017.1 |
| 20260901200003 | 67 | 82 | 13.0 | 15.0 | 0.00 | 0.00 | 0.00 | 83 | 1017.1 |
| 20260901195003 | 67 | 83 | 12.0 | 14.0 | 0.00 | 0.00 | 0.00 | 84 | 1017.2 |
| 20260901194003 | 66 | 81 | 13.0 | 15.0 | 0.00 | 0.00 | 0.00 | 84 | 1017.3 |
| 20260901193003 | 66 | 84 | 13.0 | 14.0 | 0.00 | 0.00 | 0.00 | 84 | 1017.3 |
| 20260901192024 | 67 | 79 | 12.0 | 14.0 | 0.00 | 0.00 | 0.00 | 82 | 1017.4 |
| 20260901191003 | 67 | 82 | 13.0 | 15.0 | 0.00 | 0.00 | 0.00 | 83 | 1017.2 |
| 20260901190003 | 67 | 75 | 13.0 | 15.0 | 0.00 | 0.00 | 0.00 | 83 | 1017.3 |
| 20260901185002 | 67 | 78 | 12.0 | 15.0 | 0.00 | 0.00 | 0.00 | 82 | 1017.2 |
| 20260901184003 | 68 | 87 | 12.0 | 14.0 | 0.00 | 0.00 | 0.00 | 82 | 1017.1 |
| 20260901183003 | 67 | 81 | 12.0 | 15.0 | 0.00 | 0.00 | 0.00 | 83 | 1017.2 |
| 20260901182024 | 67 | 76 | 13.0 | 15.0 | 0.00 | 0.00 | 0.00 | 83 | 1017.1 |
| 20260901181003 | 66 | 79 | 12.0 | 14.0 | 0.00 | 0.00 | 0.00 | 83 | 1017.2 |
| 20260901180002 | 66 | 77 | 12.0 | 14.0 | 0.00 | 0.00 | 0.00 | 83 | 1017.2 |
| 20260901175003 | 66 | 67 | 12.0 | 14.0 | 0.00 | 0.00 | 0.00 | 82 | 1017.1 |
| 20260901174024 | 66 | 69 | 10.0 | 14.0 | 0.00 | 0.00 | 0.00 | 82 | 1017.1 |
| 20260901173002 | 65 | 56 | 9.0 | 12.0 | 0.00 | 0.00 | 0.00 | 81 | 1017.1 |